OVM YMEN-YMEN

Flight info

Callsign OVM
Flight time 0h 5m
Altitude 1000
Route YMML
Aircraft DC3/L-V/N

Departure

Time 2026-04-13 02:42
Airport Melbourne Essendon Airport (YMEN)

Arrival

Time 2026-04-13 02:48
Airport Melbourne Essendon Airport (YMEN)
Time Latitude Longitude Altitude Speed Heading
2026-04-13 02:37 -37.72276 144.89792 282 ft 0 kts 127°
2026-04-13 02:39 -37.72244 144.89825 282 ft 17 kts 14°
2026-04-13 02:40 -37.72109 144.89890 285 ft 22 kts 13°
2026-04-13 02:40 -37.71994 144.89947 287 ft 10 kts 106°
2026-04-13 02:40 -37.72027 144.89973 287 ft 7 kts 178°
2026-04-13 02:40 -37.72058 144.90060 286 ft 19 kts 114°
2026-04-13 02:41 -37.72190 144.90086 281 ft 32 kts 182°
2026-04-13 02:41 -37.72585 144.90091 284 ft 78 kts 175°
2026-04-13 02:41 -37.73240 144.90143 286 ft 105 kts 184°
2026-04-13 02:41 -37.73810 144.90164 429 ft 112 kts 184°
2026-04-13 02:42 -37.74380 144.89708 665 ft 110 kts 263°
2026-04-13 02:42 -37.74282 144.88753 815 ft 114 kts 281°
2026-04-13 02:42 -37.73733 144.87953 938 ft 128 kts 328°
2026-04-13 02:42 -37.72825 144.87793 1077 ft 136 kts 354°
2026-04-13 02:43 -37.71874 144.87822 1196 ft 138 kts 356°
2026-04-13 02:43 -37.70902 144.87888 1333 ft 137 kts 355°
2026-04-13 02:43 -37.69947 144.87978 1404 ft 142 kts
2026-04-13 02:43 -37.68927 144.88145 1471 ft 149 kts
2026-04-13 02:44 -37.67894 144.88342 1568 ft 144 kts
2026-04-13 02:44 -37.66971 144.88477 1595 ft 124 kts 358°
2026-04-13 02:44 -37.66137 144.88562 1558 ft 116 kts 351°
2026-04-13 02:44 -37.65649 144.88559 1526 ft 110 kts 348°
2026-04-13 02:45 -37.64939 144.88385 1551 ft 98 kts 329°
2026-04-13 02:45 -37.64370 144.87968 1560 ft 92 kts 310°
2026-04-13 02:45 -37.63999 144.87383 1562 ft 79 kts 285°
2026-04-13 02:45 -37.63841 144.86691 1461 ft 84 kts 274°
2026-04-13 02:46 -37.63755 144.85942 1395 ft 85 kts 269°
2026-04-13 02:46 -37.63726 144.85208 1358 ft 84 kts 267°
2026-04-13 02:46 -37.63748 144.84444 1226 ft 90 kts 253°
2026-04-13 02:47 -37.64630 144.83415 746 ft 87 kts 195°
2026-04-13 02:47 -37.65228 144.83498 549 ft 85 kts 179°
2026-04-13 02:47 -37.65794 144.83597 439 ft 76 kts 172°
2026-04-13 02:47 -37.66233 144.83672 418 ft 52 kts 176°
2026-04-13 02:48 -37.66464 144.83708 410 ft 12 kts 171°
2026-04-13 02:48 -37.66483 144.83713 409 ft 0 kts 169°
2026-04-13 02:48 -37.66671 144.83740 403 ft 52 kts 171°
2026-04-13 02:48 -37.67182 144.83841 386 ft 91 kts 178°
2026-04-13 02:49 -37.67865 144.83978 455 ft 102 kts 178°
2026-04-13 02:49 -37.68565 144.84084 714 ft 99 kts 182°
2026-04-13 02:49 -37.69260 144.84168 871 ft 100 kts 180°
2026-04-13 02:49 -37.69943 144.84256 1057 ft 98 kts 186°
2026-04-13 02:50 -37.70624 144.84280 1255 ft 98 kts 182°
2026-04-13 02:50 -37.71199 144.84753 1309 ft 123 kts 108°
2026-04-13 02:50 -37.71117 144.85814 1104 ft 122 kts 86°
2026-04-13 02:50 -37.71011 144.86858 981 ft 115 kts 85°
2026-04-13 02:51 -37.70941 144.87862 810 ft 110 kts 92°
2026-04-13 02:51 -37.70919 144.88786 688 ft 103 kts 95°
2026-04-13 02:51 -37.70914 144.89673 678 ft 97 kts 110°
2026-04-13 02:51 -37.71285 144.90242 628 ft 80 kts 191°
2026-04-13 02:52 -37.71835 144.90108 443 ft 84 kts 188°
2026-04-13 02:52 -37.72413 144.90100 287 ft 78 kts 178°
2026-04-13 02:52 -37.72844 144.90115 275 ft 42 kts 177°
2026-04-13 02:52 -37.72960 144.90053 274 ft 7 kts 278°
2026-04-13 02:53 -37.72926 144.89992 274 ft 12 kts 351°
2026-04-13 02:53 -37.72816 144.89992 274 ft 19 kts 358°
2026-04-13 02:53 -37.72669 144.89984 279 ft 19 kts
2026-04-13 02:53 -37.72551 144.89977 282 ft 16 kts 356°
2026-04-13 02:54 -37.72431 144.89917 279 ft 19 kts 327°
2026-04-13 02:54 -37.72333 144.89853 280 ft 10 kts 330°
2026-04-13 02:54 -37.72294 144.89813 282 ft 1 kts 356°
2026-04-13 02:54 -37.72292 144.89813 282 ft 0 kts 20°